SB KEPS @ AMSAT $ORB07228.N 2Line Orbital Elements 07228.AMSAT
HR AMSAT ORBITAL ELEMENTS FOR AMATEUR SATELLITES IN NASA FORMAT FROM WA5QGD FORT WORTH,TX August 16, 2007 Send Subscribe/unsubscribe to KEPS at http://www.amsat.org/mailman/listinfo/keps BID: ORB07228.N
DECODE 2-LINE ELSETS WITH THE FOLLOWING KEY: 1 AAAAAU 00 0 0 BBBBB.BBBBBBBB .CCCCCCCC 00000-0 00000-0 0 DDDZ 2 AAAAA EEE.EEEE FFF.FFFF GGGGGGG HHH.HHHH III.IIII JJ.JJJJJJJJKKKKKZ KEY: A-CATALOGNUM B-EPOCHTIME C-DECAY D-ELSETNUM E-INCLINATION F-RAAN G-ECCENTRICITY H-ARGPERIGEE I-MNANOM J-MNMOTION K-ORBITNUM Z-CHECKSUM
TO ALL RADIO AMATEURS BT
AO-07 1 07530U 74089B 07228.55503607 -.00000028 00000-0 10000-3 0 9527 2 07530 101.5108 264.7790 0012006 136.9651 223.2365 12.53572373498684 AO-10 1 14129U 83058B 07228.28429466 .00000071 00000-0 10000-3 0 4123 2 14129 026.2404 261.4142 6065083 047.9046 349.8653 02.05866980181805 UO-11 1 14781U 84021B 07227.70346871 .00000158 00000-0 28428-4 0 04469 2 14781 098.1888 251.5461 0009042 347.6678 012.4328 14.79572700258530 RS-15 1 23439U 94085A 07227.58367778 -.00000039 00000-0 10597-3 0 524 2 23439 064.8178 270.8669 0157806 180.1483 179.9417 11.27552399520398 FO-29 1 24278U 96046B 07228.77041043 -.00000054 00000-0 -15342-4 0 5685 2 24278 098.5565 180.2936 0349896 286.4349 069.8608 13.52931387543097 SO-33 1 25509U 98061B 07228.44871693 -.00000086 00000-0 -31796-4 0 9969 2 25509 031.4309 245.0360 0355329 234.1918 122.5185 14.28169673459872 AO-40 1 26609U 00072B 07228.05566248 -.00000248 00000-0 10000-3 0 9200 2 26609 006.2331 126.3395 7967944 353.1605 000.7209 01.25587986 31191 VO-52 1 28650U 05017B 07227.75392905 -.00000048 00000-0 66228-6 0 7027 2 28650 097.8288 297.1292 0028321 060.7403 299.6656 14.81345905123237 PO-63 1 29712U 07001D 07228.76440953 .00000464 00000-0 68514-4 0 6434 2 29712 097.9179 287.0746 0013012 295.9607 064.0253 14.79793323 32298 AO-16 1 20439U 90005D 07228.54048998 -.00000002 00000-0 14277-4 0 1077 2 20439 098.1993 219.7807 0011661 011.6815 348.4640 14.31767598917186 LO-19 1 20442U 90005G 07227.52075698 -.00000059 00000-0 -67833-5 0 00333 2 20442 098.1817 228.0832 0012553 013.3029 346.8491 14.32007468917183 AO-27 1 22825U 93061C 07227.49555670 .00000024 00000-0 25881-4 0 7540 2 22825 098.3357 194.8067 0009433 085.7731 274.4543 14.29215162723960 IO-26 1 22826U 93061D 07227.88265062 .00000006 00000-0 18610-4 0 04546 2 22826 098.3285 196.2218 0009975 081.7498 278.4812 14.29461827724103 PO-28 1 22829U 93061G 07227.45962502 -.00000081 00000-0 -15423-4 0 07317 2 22829 098.3173 196.9761 0010798 059.2113 301.0126 14.30162681724289 GO-32 1 25397U 98043D 07227.78117367 .00000034 00000-0 33337-4 0 3756 2 25397 098.4105 272.3746 0002039 072.4942 287.6470 14.23129678472637 MO-46 1 26548U 00057D 07228.73369695 -.00000234 00000-0 -10798-4 0 8724 2 26548 064.5583 355.3520 0007953 190.8638 169.2243 14.83164674372519 NO-44 1 26931U 01043C 07228.46891177 -.00000124 00000-0 -16032-4 0 6601 2 26931 067.0543 352.2044 0007063 258.2801 101.7483 14.29492499306714 SO-50 1 27607U 02058C 07227.59871236 .00000015 00000-0 24418-4 0 03843 2 27607 064.5573 264.6493 0061379 344.2490 015.6710 14.71278478249868 CO-55 1 27844U 03031E 07227.55263518 .00000040 00000-0 39142-4 0 00971 2 27844 098.7193 235.0421 0009142 285.4573 074.5594 14.20526269213907 CO-57 1 27848U 03031J 07228.56704512 .00000035 00000-0 37011-4 0 563 2 27848 098.7184 235.2172 0009295 286.2427 073.7739 14.20343867214029 AO-51 1 28375U 04025K 07227.60695736 -.00000004 00000-0 11619-4 0 08880 2 28375 098.1087 263.8515 0085015 002.9804 357.1873 14.40576569164273 CO-56 1 28941U 06005C 07227.93825709 .00015912 23426-5 15820-3 0 05429 2 28941 098.1264 295.7660 0218644 061.3695 300.9354 15.42137289082631 HO-59 1 29484U 06041F 07228.66620233 .00039778 28791-5 24909-3 0 5961 2 29484 098.2802 287.7995 0192246 048.8199 312.9455 15.55728878 50468 NO-60 1 29661U 06055C 07150.05824307 .13324117 12618-4 10400-3 0 3000 2 29661 051.6186 176.5045 0007204 190.7749 188.7342 16.52052832 25544 NO-61 1 29664U 06055F 07228.81422642 .00032123 11673-4 85803-4 0 3895 2 29664 051.6307 131.9247 0009892 214.2177 145.8190 15.95638419 37829 CP4 1 31122U 07012F 07228.56711427 .00000597 00000-0 14251-3 0 1103 2 31122 098.0858 299.8880 0085512 197.1065 162.7248 14.55026301 17637 CP3 1 31128U 07012M 07227.65985393 -.00000048 00000-0 00000-0 0 01053 2 31128 098.0786 298.4068 0102720 201.6283 158.0582 14.51856783017450 LIBERT 1 31129U 07012N 07228.68637582 .00000384 00000-0 10000-3 0 3027 2 31129 098.0797 299.4060 0102297 198.4601 161.2863 14.51950411 17587 NOAA-10 1 16969U 86073A 07227.60824122 -.00000035 00000-0 38211-5 0 07692 2 16969 098.7444 244.8239 0012556 358.9951 001.1188 14.27331241087709 NOAA-11 1 19531U 88089A 07227.74725197 -.00000162 00000-0 -61163-4 0 07868 2 19531 098.8124 316.1713 0011095 218.2528 141.7879 14.14847433974577 NOAA-12 1 21263U 91032A 07227.54219572 .00000026 00000-0 29853-4 0 02860 2 21263 098.7546 224.6928 0011710 299.3322 060.6705 14.25489742844701 MET-3/5 1 21655U 91056A 07227.96046868 .00000051 00000-0 10000-3 0 03731 2 21655 082.5594 320.7177 0014592 060.8807 299.3773 13.17012214769274 MET-2/21 1 22782U 93055A 07227.88431605 -.00000124 00000-0 -12606-3 0 9050 2 22782 082.5508 354.5518 0023972 070.5959 289.7791 13.83617023704772 OKEAN-4 1 23317U 94066A 07227.77785953 .00000233 00000-0 25858-4 0 03466 2 23317 082.5352 240.9353 0023933 058.8387 301.5169 14.82525748692882 NOAA-14 1 23455U 94089A 07227.81316009 .00000237 00000-0 14947-3 0 07689 2 23455 098.9859 294.3061 0008550 293.1141 066.9142 14.13724754651067 SICH-1 1 23657U 95046A 07228.73750850 .00000094 00000-0 88306-5 0 1457 2 23657 082.5276 020.9847 0025327 047.2578 313.0751 14.81506811644994 NOAA-15 1 25338U 98030A 07227.58832789 .00000159 00000-0 86646-4 0 01170 2 25338 098.5328 222.6058 0009901 211.4440 148.6146 14.24660938481149 RESURS 1 25394U 98043A 07227.71681737 .00000002 00000-0 19125-4 0 07223 2 25394 098.4336 279.8770 0002169 037.5009 322.6321 14.24143122472826 FENGYUN1 1 25730U 99025A 07227.91888538 .00000501 00000-0 32150-3 0 02511 2 25730 098.6911 209.5278 0019654 324.6381 035.3484 14.07580632425877 OKEAN-0 1 25860U 99039A 07227.51618212 .00000040 00000-0 13288-4 0 01335 2 25860 097.7331 226.9987 0001126 103.2228 256.9104 14.73468249434235 NOAA-16 1 26536U 00055A 07227.55252513 .00000173 00000-0 11866-3 0 05440 2 26536 099.1205 205.5413 0010804 011.9195 348.2218 14.12447124355482 NOAA-17 1 27453U 02032A 07227.82642199 -.00000063 00000-0 -85152-5 0 05518 2 27453 098.5763 295.6888 0010739 281.0184 078.9789 14.23900639267203 NOAA-18 1 28654U 05018A 07227.81538666 .00000400 00000-0 24604-3 0 00815 2 28654 098.8301 168.1048 0015313 098.6690 261.6211 14.11088062115260 HUBBLE 1 20580U 90037B 07227.94648248 .00000276 00000-0 85368-5 0 09414 2 20580 028.4677 160.4348 0003370 012.6051 347.4621 15.00268722748947 UARS 1 21701U 91063B 07227.93121827 .00001957 00000-0 39132-4 0 01469 2 21701 056.9753 054.5707 0086269 309.9458 049.4041 15.48652396875006 PO-34 1 25520U 98064B 07227.91020000 .00000367 00000-0 83314-5 0 08080 2 25520 028.4595 069.0223 0005840 186.1533 173.8990 15.17034372486609 ISS 1 25544U 98067A 07229.01434028 .00008535 00000-0 57481-4 0 7989 2 25544 051.6358 149.8408 0007920 254.1848 283.2351 15.76112068500370 OO-38 1 26063U 00004C 07227.61081970 -.00000008 00000-0 17669-4 0 09869 2 26063 100.2290 241.2126 0037055 353.2972 006.7704 14.35812804395582 UWE-1 1 28892U 05043C 07227.71846543 .00000154 00000-0 42017-4 0 08220 2 28892 098.1230 123.1618 0016416 288.5834 071.3585 14.59531320095895 CO-58 1 28895U 05043F 07227.69526703 .00000046 00000-0 19337-4 0 8008 2 28895 098.1262 123.3729 0016871 289.0606 070.8789 14.59575610 95773 NCUBE2 1 28897U 05043H 07228.24325380 .00000074 00000-0 25192-4 0 3282 2 28897 098.1244 123.8615 0016406 289.4847 070.4579 14.59739489 88130 NMARS 1 29662U 06055D 07126.39603970 .07031946 12599-4 11450-3 0 2632 2 29662 051.6121 302.3682 0004459 252.1654 110.7411 16.47981436 21652 FCAL 1 29667U 06055J 07228.56815562 .00013985 11173-4 55857-4 0 2757 2 29667 051.6331 137.1545 0012351 215.2064 144.8137 15.90211631 37602 FALCON 1 30776U 07006E 07227.98279341 .00000231 00000-0 20019-4 0 01294 2 30776 035.4331 210.1667 0001429 284.6442 075.4118 15.02749221024053 MAST 1 31126U 07012K 07227.74193366 .00000393 00000-0 10000-3 0 1070 2 31126 098.0794 298.7700 0094345 200.6927 159.0404 14.53357991 17509 CAPE1 1 31130U 07012P 07227.65833510 .00000254 00000-0 69850-4 0 00968 2 31130 098.0797 298.4070 0102433 201.7370 157.9472 14.51877319017248 /EX
participants (1)
-
Ray Hoad